Location: *
(2.5500°S, 65.9667°W)
Time: 13:02:32
(UTC+00:00)

Cosmos 2173 Rocket - Visible Passes

Search period start: 29 May 2022 00:00
Search period end: 08 June 2022 00:00
Orbit: 943 x 1001 km, 83.0° (Epoch: 28 May)

Date Brightness Start Highest point End Pass type
(mag) Time Alt. Az. Time Alt. Az. Time Alt. Az.
29 May 6.7 09:30:34 10° NE 09:34:59 20° E 09:39:25 10° SE visible
29 May 4.3 22:32:14 10° S 22:38:27 76° W 22:44:32 10° N visible
30 May 5.4 09:53:29 10° NNE 09:59:20 43° E 10:05:18 10° SSE visible
30 May 5.7 22:57:17 10° SSW 23:02:49 35° W 23:08:18 10° NNW visible
31 May 6.8 23:23:39 10° WSW 23:27:10 16° W 23:30:41 10° NW visible
01 Jun 6.8 08:59:50 10° NE 09:03:14 15° E 09:06:39 10° ESE visible
02 Jun 5.8 09:22:04 10° NNE 09:27:36 33° E 09:33:11 10° SSE visible
03 Jun 4.4 09:45:45 10° N 09:51:59 71° E 09:58:20 10° S visible
03 Jun 6.6 22:50:57 10° SW 22:55:25 21° W 22:59:51 10° NW visible
04 Jun 7.0 08:30:03 10° ENE 08:31:29 11° E 08:32:56 10° ESE visible
05 Jun 6.2 08:50:49 10° NE 08:55:51 25° E 09:00:56 10° SE visible
06 Jun 4.8 09:14:07 10° N 09:20:14 54° E 09:26:25 10° SSE visible
07 Jun 4.0 09:38:21 10° N 09:44:38 73° W 09:51:00 10° S visible
07 Jun 7.1 22:45:49 10° WSW 22:48:00 12° W 22:50:11 10° WNW visible
